Volver al catálogo

THOR ABLESTAR DEB

ActivoLEO
NORAD 268·DEBRIS·🇺🇸 United States

Lanzado Jun 29, 1961 desde Cape Canaveral Space Force Station

Loading…

Próximos Pases (próximas 24 horas)

TLE

ActualizadoSource: Space-Track

Época: Sep 8, 2026, 19:39 UTC

1   268U 61015CN  26251.81875418  .00000101  00000-0  43417-3 0  9991
2   268  67.9402  52.4952 0646777  87.0235  27.6510 12.51855524963721

Sigue THOR ABLESTAR DEB en tiempo real con AllMySat

Download on the App Store